Regional Weather Roundup
Issued by NWS

Home | Current Version | Previous Version | Graphics & Text | Print | Product List | Glossary On
Versions: 1 2 3 4 5 6 7 8 9 10 11 12 13 14 15 16 17 18 19 20 21 22 23 24 25 26 27 28 29 30 31 32 33 34 35 36 37 38 39 40 41 42 43 44 45 46 47 48 49 50
971
ASUS44 KMEG 251200
RWRTN
TENNESSEE HOURLY STATE WEATHER ROUNDUP
NATIONAL WEATHER SERVICE MEMPHIS TN
700 AM CDT THU AUG 25 2016

TNZ002-004-019-021-049-052-054-088>092-251300-
WEST TENNESSEE

CITY           SKY/WX    TMP DP  RH WIND       PRES   REMARKS
MEMPHIS INTL   PTCLDY    80  74  81 CALM      30.11S
NWS MEMPHIS      N/A     76 N/A N/A MISG        N/A
JACKSON        CLEAR     73  73 100 CALM      30.13R
DYERSBURG      CLEAR     77  72  83 MISG      30.12R
UNION CITY     CLEAR     72  72 100 CALM      30.11S
PARIS          CLEAR     72  72 100 CALM      30.14R
LEXINGTON      CLEAR     73  73 100 CALM      30.14R
$$

TNZ008-025-027-028-033-062-065-066-251300-
NORTH MIDDLE TENNESSEE

CITY           SKY/WX    TMP DP  RH WIND       PRES   REMARKS
NASHVILLE      PTCLDY    74  71  91 CALM      30.16R
CLARKSVILLE    CLEAR     73  71  93 CALM      30.14R
SMYRNA         PTCLDY    73  72  94 MISG      30.16
COOKEVILLE     PTCLDY    72  72 100 CALM      30.19R
CROSSVILLE     PTCLDY    70  68  93 CALM      30.25R
$$

TNZ061-075-076-078-094-096-097-251300-
SOUTH MIDDLE TENNESSEE

CITY           SKY/WX    TMP DP  RH WIND       PRES   REMARKS
SHELBYVILLE    PTCLDY    75  73  94 E3        30.19R
$$

TNZ017-018-042-046-047-251300-
NORTHEAST TENNESSEE

CITY           SKY/WX    TMP DP  RH WIND       PRES   REMARKS
TRI CITIES     MOSUNNY   69  67  93 CALM      30.23F
$$

TNZ012-013-036-069-073-074-251300-
CENTRAL EAST TENNESSEE

CITY           SKY/WX    TMP DP  RH WIND       PRES   REMARKS
KNOXVILLE      MOSUNNY   73  70  90 SW3       30.20S
OAK RIDGE      MOSUNNY   75  71  87 CALM      30.22R
GATLINBURG     SUNNY     72  70  94 CALM      30.21S
$$

TNZ083-085-099-251300-
SOUTHEAST TENNESSEE

CITY           SKY/WX    TMP DP  RH WIND       PRES   REMARKS
CHATTANOOGA    PTCLDY    75  70  84 CALM      30.21R
$$

SKY/WX REPORTED AS FAIR MEANS FEW OR NO CLOUDS BELOW
12 THOUSAND FEET.





USA.gov is the U.S. government's official web portal to all federal, state and local government web resources and services.